Regional Weather Roundup
Issued by NWS

Home | Current Version | Previous Version | Graphics & Text | Print | Product List | Glossary On
Versions: 1 2 3 4 5 6 7 8 9 10 11 12 13 14 15 16 17 18 19 20 21 22 23 24 25 26 27
000
ASUS45 KSLC 281510
RWRUT

UTAH REGIONAL WEATHER ROUNDUP
NATIONAL WEATHER SERVICE SALT LAKE CITY UT
900 AM MDT FRI APR 28 2017

UTZ001>011-023>025-281600-

NORTHERN UTAH

CITY           SKY/WX    TMP DP  RH WIND       PRES   REMARKS
BRIGHAM CITY   CLOUDY    36  27  68 NW12      29.91R WCI  28
HILL AFB       PTSUNNY   35  25  66 NW8       29.88S WCI  29
LOGAN          LGT SNOW  33  30  88 CALM      29.90R VSB 3/4
OGDEN          CLOUDY    37  28  70 NW10      29.88R WCI  30
SALT LAKE CITY PTSUNNY   40  29  64 W7        29.90R
TOOELE VALLEY  CLOUDY    37  28  70 NW9       29.91S WCI  31
WENDOVER       SUNNY     40  21  46 NW17G24   29.95R WCI  31
HEBER CITY     MOSUNNY   34  23  64 CALM      29.83F
WEST JORDAN    CLOUDY    39  36  89 W8        29.90R WCI  34

$$

UTZ011>015-024>027-281600-

CENTRAL/NORTHEAST UTAH

CITY           SKY/WX    TMP DP  RH WIND       PRES   REMARKS
PROVO AIRPORT  MOSUNNY   38  28  67 N6        29.89S WCI  33
MOAB/CANYONLAN MOSUNNY   43  16  33 NW14      29.77S
DELTA          PTSUNNY   36  25  64 N9        29.92R WCI  29
PRICE          SUNNY     36  18  48 NW18G28   29.77S WCI  26
RICHFIELD      PTSUNNY   37  18  44 N8        29.90R WCI  31
ROOSEVELT      MOSUNNY   37  18  44 S5        29.79S WCI  34
VERNAL         SUNNY     37  19  48 SE8       29.77S WCI  31

$$

UTZ013>016-019>022-027-281600-

SOUTHERN UTAH

CITY           SKY/WX    TMP DP  RH WIND       PRES   REMARKS
BRYCE CANYON   SUNNY     30  10  43 NW17G24   29.83F WCI  18
CEDAR CITY     SUNNY     39  20  46 N12       29.87R WCI  32
MILFORD        PTSUNNY   40  23  50 N10       29.90R WCI  33
ST GEORGE      MOSUNNY   54  24  31 NE9       29.88S
HANKSVILLE     SUNNY     43  12  28 NW20      29.84S
KANAB          SUNNY     45  18  33 N8G15     29.90R
BLANDING       MOSUNNY   42  17  35 N12G17    29.83S

$$

REGIONAL REPORTS     COLORADO/ARIZONA

CITY           SKY/WX    TMP DP  RH WIND       PRES   REMARKS
CRAIG, CO      CLOUDY    34  22  61 W7        29.76F WCI  28
GRAND JUNCTION SUNNY     42  22  44 CALM      29.77S
RIFLE, CO      SUNNY     38  27  64 VRB5      29.76F WCI  34
MONTROSE, CO   SUNNY     39  14  36 CALM      29.78F
CORTEZ, CO     MOSUNNY   42  18  37 N7        29.76F
COLORADO CITY    N/A     46  21  36 NW14      29.89S
PAGE, AZ       SUNNY     49  21  33 NW14G21   29.81R
GRAND CANYON   MOSUNNY   43  16  33 NW8G17    29.82S
KINGMAN, AZ    MOSUNNY   57  16  20 N20       29.85R
FLAGSTAFF, AZ  PTSUNNY   41  11  29 NW10G17   29.82R

$$

REGIONAL REPORTS    NEVADA/IDAHO/WYOMING

CITY           SKY/WX    TMP DP  RH WIND       PRES   REMARKS
LAS VEGAS, NV  MOSUNNY   62  13  14 NW22G32   29.87R
ELY, NY        CLOUDY    32  18  56 NW14G21   29.94R WCI  22
ELKO, NV       MOSUNNY   35  19  52 NW14      30.01R WCI  26
POCATELLO, ID  CLOUDY    34  31  88 SW14      29.94S WCI  25
BURLEY, ID     CLOUDY    33  28  81 W15G23    29.96R WCI  23
EVANSTON, WY   SNOW      24  22  91 SW12      29.80S VSB 1/2 WCI  13
ROCK SPRINGS,  LGT SNOW  28  22  78 SW20      29.74S WCI  15

$$




USA.gov is the U.S. government's official web portal to all federal, state and local government web resources and services.